When you browse on this site, cookies collect data to enhance your experience and personalize the content and advertising you see.
Visit our Privacy Policy to learn more. By continuing to use the site, you agree to this use of cookies and data.
  • în România
  • Lista ţărilor
  • Pe 7 zile
  • Temperatura apei
  • Hartă satelitară
  • Meteo pe hartă
  • Widget-uri
  • user-avatar
    Intrare

    Meteo pe oră la Khashuri

    Astăzi, 18 Martie, Luni

    Timp Temperatura Precipitaţii Vânt Presiune Umiditate
    00:00 -6°C° 0.1 mm 2 m/s 609 mmHg 90%
    01:00 -6°C° 0.1 mm 2 m/s 609 mmHg 90%
    02:00 -6°C° 0.1 mm 2 m/s 609 mmHg 90%
    03:00 -7°C° 0 mm 2 m/s 608 mmHg 94%
    04:00 -6°C° 0.1 mm 1 m/s 609 mmHg 94%
    05:00 -7°C° 0.1 mm 1 m/s 609 mmHg 93%
    06:00 -7°C° 0.1 mm 1 m/s 609 mmHg 93%
    07:00 -6°C° 0.2 mm 1 m/s 610 mmHg 90%
    08:00 -4°C° 0.2 mm 1 m/s 610 mmHg 87%
    09:00 -3°C° 0 mm 1 m/s 610 mmHg 86%
    10:00 -3°C° 0.4 mm 1 m/s 610 mmHg 85%
    11:00 -4°C° 0.4 mm 2 m/s 611 mmHg 84%
    12:00 -4°C° 0.4 mm 2 m/s 611 mmHg 82%
    13:00 -4°C° 0.2 mm 2 m/s 611 mmHg 82%
    14:00 -3°C° 0.2 mm 2 m/s 611 mmHg 81%
    15:00 -3°C° 0.2 mm 2 m/s 611 mmHg 80%
    16:00 -2°C° 0.1 mm 1 m/s 611 mmHg 83%
    17:00 -3°C° 0.1 mm 1 m/s 611 mmHg 86%
    18:00 -4°C° 0.1 mm 1 m/s 611 mmHg 89%
    19:00 -6°C° 0 mm 1 m/s 611 mmHg 90%
    20:00 -7°C° 0 mm 1 m/s 611 mmHg 91%
    21:00 -8°C° 0 mm 0 m/s 611 mmHg 92%
    22:00 -8°C° 0 mm 0 m/s 611 mmHg 90%
    23:00 -8°C° 0 mm 1 m/s 611 mmHg 89%

    Mâine, 19 Martie, Marţi

    Timp Temperatura Precipitaţii Vânt Presiune Umiditate
    00:00 -8°C° 0 mm 1 m/s 611 mmHg 87%
    01:00 -8°C° 0 mm 1 m/s 611 mmHg 85%
    02:00 -8°C° 0 mm 1 m/s 611 mmHg 84%
    03:00 -8°C° 0 mm 1 m/s 612 mmHg 83%
    04:00 -8°C° 0.1 mm 1 m/s 612 mmHg 82%
    05:00 -8°C° 0.1 mm 1 m/s 612 mmHg 81%
    06:00 -7°C° 0.1 mm 1 m/s 612 mmHg 80%
    07:00 -6°C° 0 mm 1 m/s 613 mmHg 77%
    08:00 -3°C° 0 mm 1 m/s 613 mmHg 74%
    09:00 -2°C° 0 mm 1 m/s 614 mmHg 71%
    10:00 0°C° 0 mm 1 m/s 614 mmHg 71%
    11:00 0°C° 0 mm 0 m/s 614 mmHg 71%
    12:00 +1°C° 0 mm 0 m/s 615 mmHg 71%
    13:00 +2°C° 0 mm 0 m/s 614 mmHg 72%
    14:00 +2°C° 0 mm 0 m/s 614 mmHg 73%
    15:00 +2°C° 0 mm 0 m/s 614 mmHg 74%
    16:00 +1°C° 0 mm 0 m/s 614 mmHg 75%
    17:00 0°C° 0 mm 0 m/s 613 mmHg 77%
    18:00 -2°C° 0 mm 0 m/s 613 mmHg 78%
    19:00 -1°C° 0 mm 1 m/s 613 mmHg 78%
    20:00 -2°C° 0 mm 1 m/s 613 mmHg 79%
    21:00 -2°C° 0 mm 1 m/s 613 mmHg 79%
    22:00 -5°C° 0 mm 2 m/s 613 mmHg 78%
    23:00 -5°C° 0 mm 2 m/s 613 mmHg 78%

    Poimâine, 20 Martie, Miercuri

    Timp Temperatura Precipitaţii Vânt Presiune Umiditate
    00:00 -6°C° 0 mm 2 m/s 612 mmHg 77%
    01:00 -6°C° 0 mm 2 m/s 612 mmHg 76%
    02:00 -6°C° 0 mm 2 m/s 612 mmHg 75%
    03:00 -6°C° 0 mm 2 m/s 612 mmHg 74%
    04:00 -6°C° 0 mm 2 m/s 612 mmHg 74%
    05:00 -6°C° 0 mm 2 m/s 611 mmHg 73%
    06:00 -6°C° 0 mm 2 m/s 611 mmHg 72%
    07:00 -4°C° 0 mm 2 m/s 612 mmHg 70%
    08:00 -2°C° 0 mm 2 m/s 612 mmHg 68%
    09:00 +2°C° 0 mm 1 m/s 613 mmHg 66%
    10:00 +3°C° 0 mm 1 m/s 613 mmHg 66%
    11:00 +4°C° 0 mm 1 m/s 613 mmHg 66%
    12:00 +5°C° 0 mm 1 m/s 614 mmHg 67%
    13:00 +5°C° 0 mm 1 m/s 613 mmHg 67%
    14:00 +5°C° 0 mm 1 m/s 613 mmHg 68%
    15:00 +6°C° 0 mm 1 m/s 613 mmHg 69%
    16:00 +4°C° 0 mm 1 m/s 612 mmHg 72%
    17:00 +3°C° 0 mm 1 m/s 612 mmHg 76%
    18:00 +1°C° 0 mm 1 m/s 611 mmHg 79%
    19:00 -1°C° 0 mm 0 m/s 612 mmHg 81%
    20:00 -1°C° 0 mm 0 m/s 612 mmHg 84%
    21:00 -2°C° 0 mm 0 m/s 612 mmHg 86%
    22:00 -3°C° 0 mm 0 m/s 612 mmHg 86%
    23:00 -3°C° 0 mm 0 m/s 612 mmHg 87%

    21 Martie, Joi

    Timp Temperatura Precipitaţii Vânt Presiune Umiditate
    00:00 -3°C° 0 mm 0 m/s 612 mmHg 87%
    01:00 -3°C° 0 mm 1 m/s 612 mmHg 86%
    02:00 -3°C° 0 mm 1 m/s 612 mmHg 86%
    03:00 -3°C° 0 mm 1 m/s 612 mmHg 85%
    04:00 -3°C° 0 mm 1 m/s 612 mmHg 83%
    05:00 -4°C° 0 mm 1 m/s 612 mmHg 82%
    06:00 -4°C° 0 mm 1 m/s 612 mmHg 80%
    07:00 -2°C° 0 mm 1 m/s 612 mmHg 75%
    08:00 -1°C° 0 mm 1 m/s 613 mmHg 69%
    09:00 +1°C° 0 mm 1 m/s 614 mmHg 63%
    10:00 +2°C° 0 mm 1 m/s 614 mmHg 62%
    11:00 +3°C° 0 mm 1 m/s 614 mmHg 62%
    12:00 +4°C° 0 mm 1 m/s 614 mmHg 61%
    13:00 +4°C° 0 mm 1 m/s 613 mmHg 63%
    14:00 +4°C° 0 mm 1 m/s 613 mmHg 65%
    15:00 +3°C° 0 mm 2 m/s 613 mmHg 67%
    16:00 +2°C° 0 mm 2 m/s 613 mmHg 73%
    17:00 +1°C° 0 mm 1 m/s 612 mmHg 80%
    18:00 0°C° 0 mm 1 m/s 612 mmHg 86%
    19:00 -1°C° 0 mm 1 m/s 612 mmHg 88%
    20:00 -1°C° 0 mm 1 m/s 612 mmHg 91%
    21:00 -2°C° 0 mm 1 m/s 613 mmHg 93%
    22:00 -2°C° 0 mm 1 m/s 613 mmHg 93%
    23:00 -2°C° 0 mm 1 m/s 612 mmHg 92%

    22 Martie, Vineri

    Timp Temperatura Precipitaţii Vânt Presiune Umiditate
    00:00 -2°C° 0 mm 1 m/s 612 mmHg 92%
    01:00 -2°C° 0 mm 1 m/s 612 mmHg 92%
    02:00 -3°C° 0 mm 1 m/s 612 mmHg 92%
    03:00 -3°C° 0 mm 1 m/s 612 mmHg 91%
    04:00 -3°C° 0 mm 1 m/s 612 mmHg 90%
    05:00 -4°C° 0 mm 1 m/s 612 mmHg 88%
    06:00 -4°C° 0 mm 1 m/s 612 mmHg 87%
    07:00 -3°C° 0 mm 1 m/s 612 mmHg 81%
    08:00 -1°C° 0 mm 1 m/s 612 mmHg 75%
    09:00 -2°C° 0 mm 2 m/s 613 mmHg 69%
    10:00 -2°C° 0.1 mm 2 m/s 612 mmHg 69%
    11:00 -1°C° 0.1 mm 2 m/s 612 mmHg 69%
    12:00 +1°C° 0.1 mm 2 m/s 612 mmHg 68%
    13:00 -1°C° 0.4 mm 2 m/s 612 mmHg 72%
    14:00 -1°C° 0.4 mm 2 m/s 611 mmHg 76%
    15:00 -2°C° 0.4 mm 2 m/s 611 mmHg 80%
    16:00 -3°C° 0.4 mm 2 m/s 611 mmHg 82%
    17:00 -3°C° 0.4 mm 2 m/s 611 mmHg 84%
    18:00 -4°C° 0.4 mm 2 m/s 611 mmHg 86%
    19:00 -4°C° 0.2 mm 2 m/s 611 mmHg 86%
    20:00 -5°C° 0.2 mm 2 m/s 611 mmHg 86%
    21:00 -5°C° 0.2 mm 2 m/s 612 mmHg 87%
    22:00 -6°C° 0.1 mm 2 m/s 611 mmHg 85%
    23:00 -6°C° 0.1 mm 2 m/s 611 mmHg 83%

    23 Martie, Sâmbătă

    Timp Temperatura Precipitaţii Vânt Presiune Umiditate
    00:00 -7°C° 0.1 mm 2 m/s 611 mmHg 81%
    01:00 -7°C° 0.2 mm 2 m/s 611 mmHg 82%
    02:00 -7°C° 0.2 mm 2 m/s 611 mmHg 83%
    03:00 -7°C° 0.2 mm 2 m/s 611 mmHg 84%
    04:00 -7°C° 0.1 mm 2 m/s 612 mmHg 84%
    05:00 -7°C° 0.1 mm 2 m/s 612 mmHg 84%
    06:00 -7°C° 0.1 mm 2 m/s 612 mmHg 83%
    07:00 -6°C° 0.1 mm 2 m/s 612 mmHg 79%
    08:00 -7°C° 0.1 mm 3 m/s 613 mmHg 74%
    09:00 -6°C° 0.1 mm 3 m/s 613 mmHg 70%
    10:00 -5°C° 0 mm 3 m/s 613 mmHg 67%
    11:00 -5°C° 0 mm 3 m/s 613 mmHg 64%
    12:00 -4°C° 0 mm 3 m/s 613 mmHg 61%
    13:00 -4°C° 0 mm 3 m/s 612 mmHg 61%
    14:00 -2°C° 0 mm 3 m/s 612 mmHg 62%
    15:00 -2°C° 0 mm 3 m/s 611 mmHg 62%
    16:00 -3°C° 0 mm 2 m/s 611 mmHg 67%
    17:00 -4°C° 0 mm 2 m/s 611 mmHg 72%
    18:00 -2°C° 0 mm 1 m/s 610 mmHg 77%
    19:00 -3°C° 0 mm 1 m/s 610 mmHg 79%
    20:00 -4°C° 0 mm 1 m/s 610 mmHg 82%
    21:00 -4°C° 0 mm 1 m/s 610 mmHg 84%
    22:00 -4°C° 0.1 mm 1 m/s 610 mmHg 83%
    23:00 -4°C° 0.1 mm 1 m/s 609 mmHg 82%
    Arată mai mult